This demonstration page uses our WeatherBlox Daily Observations layout. Learn more.

Left ArrowRight Arrow

34.02893, -84.19858

Hourly Observations for November 14, 2016

Temp ( °F °C ) Dew Point ( °F °C ) Humidity (%) Winds ( mph kmh ) Pressure ( in mb ) Visibility ( mi km ) Precip ( " mm )
12:53 am 00:53 Clear with Mist and Fog 40 4.4 37 2.8 89 89 Calm 30.16 1022 5 8 0.00 0.00
1:53 am 01:53 Clear with Mist and Fog 40 4.4 38 3.3 93 93 Calm 30.16 1021 5 8 0.00 0.00
2:53 am 02:53 Clear with Mist and Fog 39 3.9 37 2.8 93 93 Calm 30.14 1021 3 5 0.00 0.00
3:41 am 03:41 Mostly Cloudy with Mist and Fog 39 3.9 36 2.2 89 89 Calm 30.12 1020 3 5 0.00 0.00
3:53 am 03:53 Cloudy with Mist and Fog 38 3.3 36 2.2 93 93 N 3 6 30.12 1020 4 6 0.00 0.00
4:53 am 04:53 Cloudy with Mist and Fog 40 4.4 38 3.3 93 93 NNE 3 6 30.12 1020 4 6 0.00 0.00
5:26 am 05:26 Cloudy with Mist and Fog 39 3.9 37 2.8 93 93 Calm 30.12 1020 3 5 0.00 0.00
5:34 am 05:34 Cloudy with Mist and Fog 39 4 37 3 93 93 Calm 30.12 1020 3 4 0.00 0.00
5:53 am 05:53 Cloudy with Mist and Fog 37 2.8 35 1.7 93 93 Calm 30.12 1020 3 5 0.00 0.00
6:53 am 06:53 Cloudy with Mist and Fog 36 2.2 34 1.1 93 93 Calm 30.14 1021 3 5 0.00 0.00
7:11 am 07:11 Cloudy with Mist and Fog 36 2.2 34 1.1 93 93 Calm 30.15 1021 3 4 0.00 0.00
7:21 am 07:21 Cloudy with Mist and Fog 36 2.2 34 1.1 93 93 Calm 30.15 1021 2 3 0.00 0.00
7:41 am 07:41 Cloudy with Mist and Fog 38 3.3 35 1.7 89 89 Calm 30.15 1021 3 4 0.00 0.00
7:50 am 07:50 Cloudy with Mist and Fog 37 3 36 2 93 93 Calm 30.15 1021 3 5 0.00 0.00
7:53 am 07:53 Cloudy with Mist and Fog 37 2.8 35 1.7 93 93 SSW 3 6 30.15 1021 3 5 0.00 0.00
8:08 am 08:08 Cloudy with Mist and Fog 39 4 36 2 87 87 Calm 30.15 1021 3 4 0.00 0.00
8:11 am 08:11 Cloudy with Mist and Fog 39 3.9 37 2.8 93 93 Calm 30.15 1021 3 4 0.00 0.00
8:37 am 08:37 Cloudy with Mist and Fog 43 6.1 40 4.4 89 89 Calm 30.15 1021 3 5 0.00 0.00
8:53 am 08:53 Cloudy with Mist and Fog 45 7.2 41 5 86 86 Calm 30.14 1021 4 6 0.00 0.00
9:53 am 09:53 Cloudy with Smoke 51 10.6 39 3.9 64 64 WNW 5 7 30.14 1021 7 11 0.00 0.00
10:53 am 10:53 Cloudy with Haze 56 13.3 38 3.3 51 51 WNW 8 13 30.13 1020 6 10 0.00 0.00
11:41 am 11:41 Cloudy with Haze 61 16.1 38 3.3 43 43 NNW 8 13 30.09 1019 2 3 0.00 0.00
11:53 am 11:53 Cloudy with Haze 61 16.1 38 3.3 43 43 WNW 7 11 30.09 1019 2 3 0.00 0.00
12:46 pm 12:46 Cloudy with Haze 65 18.3 38 3.3 37 37 VRB 7 11 30.03 1017 3 4 0.00 0.00
12:53 pm 12:53 Cloudy with Haze 65 18.3 37 2.8 36 36 NW 9 15 30.05 1018 3 4 0.00 0.00
1:00 pm 13:00 Cloudy with Haze 64 18 37 3 37 37 NW 10 17 30.00 1016 3 5 0.00 0.00
1:53 pm 13:53 Cloudy with Haze 65 18.3 35 1.7 33 33 WNW 8 13 30.03 1017 3 5 0.00 0.00
2:53 pm 14:53 Cloudy with Haze 65 18.3 35 1.7 33 33 W 12 19 30.01 1016 3 5 0.00 0.00
3:53 pm 15:53 Cloudy with Haze 64 17.8 35 1.7 34 34 WNW 8 13 30.01 1016 3 5 0.00 0.00
4:53 pm 16:53 Cloudy with Haze 62 16.7 36 2.2 38 38 W 5 7 30.01 1016 3 5 0.00 0.00
5:53 pm 17:53 Cloudy with Haze 55 12.8 37 2.8 51 51 Calm 30.02 1017 4 6 0.00 0.00
6:53 pm 18:53 Cloudy with Haze 50 10 38 3.3 63 63 Calm 30.04 1017 4 6 0.00 0.00
7:05 pm 19:05 Cloudy with Haze 50 10 38 3.3 63 63 Calm 30.03 1017 4 6 0.00 0.00
7:46 pm 19:46 Hazy 48 9 37 3 66 66 Calm 30.03 1017 4 6 0.00 0.00
7:53 pm 19:53 Hazy 47 8.3 38 3.3 71 71 Calm 30.04 1017 4 6 0.00 0.00
8:53 pm 20:53 Hazy 47 8.3 39 3.9 74 74 Calm 30.04 1017 4 6 0.00 0.00
9:53 pm 21:53 Hazy 44 6.7 38 3.3 79 79 Calm 30.03 1017 3 5 0.00 0.00
10:53 pm 22:53 Clear with Mist and Fog 42 5.6 38 3.3 85 85 Calm 30.03 1017 3 5 0.00 0.00
11:53 pm 23:53 Hazy 43 6.1 38 3.3 82 82 Calm 30.02 1017 3 5 0.00 0.00

Powered by AerisWeather